Regional Weather Roundup
Issued by NWS

Home | Current Version | Previous Version | Text Only | Print | Product List | Glossary On
Versions: 1 2 3 4 5 6 7 8 9 10 11 12 13 14 15 16 17 18 19 20 21 22 23 24 25 26 27 28 29 30 31 32 33 34 35 36 37 38 39 40 41 42 43 44 45 46 47 48 49 50
000
ASUS42 KFFC 240103
RWRGA
WEATHER ROUNDUP FOR GEORGIA
NATIONAL WEATHER SERVICE PEACHTREE CITY GA
900 PM EDT SAT JUL 23 2016

NOTE: "FAIR" INDICATES FEW OR NO CLOUDS BELOW 12,000 FEET WITH NO
SIGNIFICANT WEATHER AND/OR OBSTRUCTIONS TO VISIBILITY.

* = USE WITH CAUTION. THE STATIONS MARKED WITH AN ASTERISK MAY NOT
REPORT WEATHER SUCH AS PRECIPITATION, FOG, OR THUNDER AND ARE NOT
QUALITY CONTROLLED BY NWS.

THE REMARK "TC" DENOTES TEMPERATURE READING IN DEGREES CELSIUS.

GAZ001>058-240200-
NORTH GEORGIA

CITY           SKY/WX    TMP DP  RH WIND       PRES   REMARKS
ATLANTA        CLOUDY    83  71  67 NW8       30.01S
ATHENS         CLOUDY    78  74  87 CALM      30.01R
CHAMBLEE       CLOUDY    79  72  79 N3        30.02S
PEACHTREE CITY CLOUDY    77  74  90 CALM      30.02R
ROME           CLOUDY    77  74  90 N5        30.01S
WEST ATLANTA   PTCLDY    81  70  69 N3        30.01S
CARTERSVILLE   CLOUDY    77  75  93 CALM      30.03R


CITY           SKY/WX    TMP DP  RH WIND       PRES   REMARKS
DALTON*        PTCLDY    77  73  88 CALM      30.02S
LAWRENCEVILLE* CLEAR     79  75  89 CALM      30.02R
MARIETTA       CLOUDY    80  71  73 NW3       30.03S
KENNESAW*      CLOUDY    77  72  83 NW6       30.00R
CANTON*        CLOUDY    77  72  83 CALM      30.05S HAZE
BLAIRSVILLE*     N/A    N/A N/A N/A MISG      30.08F
$$

GAZ059>098-102>109-240200-
CENTRAL GEORGIA

CITY           SKY/WX    TMP DP  RH WIND       PRES   REMARKS
AUGUSTA-BUSH   CLOUDY    79  70  74 E13       29.97R THUNDER
AUGUSTA-DANIEL PTCLDY    88  71  57 CALM      29.99R HX  94
COLUMBUS       PTCLDY    89  66  46 SW6       29.97R HX  91
MACON          MOCLDY    86  71  60 S5        29.98R HX  91
ROBINS AFB     MOCLDY    83  73  72 SE7       29.98R


CITY           SKY/WX    TMP DP  RH WIND       PRES   REMARKS
LAGRANGE*      PTCLDY    86  76  71 N3        30.00R HX  97
MILLEDGEVILLE* MOCLDY    86  77  74 CALM      29.99R HX  97
$$

GAZ099>101-110>166-240200-
SOUTH GEORGIA

CITY           SKY/WX    TMP DP  RH WIND       PRES   REMARKS
SAVANNAH       MOCLDY    83  73  72 W5        29.99R
VALDOSTA       PTCLDY    81  75  82 CALM      29.99R
ALMA           PTCLDY    80  71  74 CALM      29.99R
ST SIMONS      CLEAR     85  75  72 S6        29.99R HX  93
FT STEWART     MOCLDY    85  71  62 CALM      29.96R
ALBANY         CLOUDY    87  73  62 CALM      30.00R HX  94
HUNTER AFB     MOCLDY    84  77  80 S6        29.96R HX  93
MOODY AFB      PTCLDY    87  72  61 W10       29.99R HX  93
BRUNSWICK      CLEAR     86  77  74 SE5       30.00R HX  97


CITY           SKY/WX    TMP DP  RH WIND       PRES   REMARKS
BAINBRIDGE*    CLEAR     82  72  69 SW3       29.98R
MOULTRIE*      CLOUDY    86  73  66 S7        30.00R HX  93
VIDALIA*       PTCLDY    82  70  65 W3        30.00R
WAYCROSS*      PTCLDY    86  74  66 NW6       30.00R HX  94
DOUGLAS*       CLOUDY    77  70  78 NW9G17    30.01S
$$



USA.gov is the U.S. government's official web portal to all federal, state and local government web resources and services.